Flag for Switzerland Weather past 2 weeks in Davos, Graubünden, Switzerland

Now
56 °F

Drizzle. Low clouds.


Feels Like: 56 °F
Forecast: 40 / 66 °F
Wind: 5 mph from South

Location: Chur-Ems

Current Time: May 4, 2015 at 9:01:27 AM

Latest Report: May 4, 2015 at 8:00 AM


Visibility: 11 mi

Pressure: 29.95 "Hg

Humidity: 92%

Dew point: 54 °F

Location of DavosLocation

Historic Weather in Davos — Graph

°F

Davos temperature yesterday

Maximum temperature yesterday: 66 °F (at 4:00 PM)
Minimum temperature yesterday: 53 °F (at 6:00 AM)
Average temperature yesterday: 60 °F

Past Weeks' High & Low Weather Summary

 TemperatureHumidityPressure
High74 °F (Apr 27, 4:00 PM)96% (May 2, 11:00 PM)30.42 "Hg (May 2, 11:00 PM)
Low36 °F (Apr 29, 6:00 AM)16% (Apr 22, 3:00 PM)29.41 "Hg (Apr 27, 4:00 PM)
Average55 °F59%29.96 "Hg
* Reported Apr 19 7:00 AM — May 4 7:00 AM, Davos, Weather by CustomWeather, © 2015

Note: Actual official high and low records may vary slightly from our data, if they occured in-between our weather recording intervals... More about our weather records

Advertising

Davos weather history for previous 24 hours

 ConditionsComfort  
Time TempWeatherWind HumidityBarometerVisibility
7:00 AM
Mon, May 4
55 °FCool.2 mph94%29.93 "HgN/A
6:00 AM56 °FCool.2 mph94%29.92 "HgN/A
5:00 AM55 °FDrizzle. Overcast.2 mph94%29.91 "Hg4 mi
4:00 AM56 °FCool.1 mph90%29.92 "HgN/A
3:00 AM57 °FCool.3 mph82%29.91 "HgN/A
2:00 AM58 °FOvercast.3 mph78%29.88 "Hg7 mi
1:00 AM61 °FCool.8 mph65%29.85 "HgN/A
12:00 AM62 °FCool.12 mph67%29.85 "HgN/A
11:00 PM
Sun, May 3
62 °FOvercast.10 mph68%29.85 "Hg12 mi
10:00 PM62 °FCool.7 mph71%29.85 "HgN/A
9:00 PM63 °FMild.6 mph72%29.83 "HgN/A
8:00 PM63 °FOvercast.2 mph80%29.80 "Hg12 mi
7:00 PM63 °FMild.1 mph78%29.79 "HgN/A
6:00 PM64 °FMild.5 mph78%29.79 "HgN/A
5:00 PM65 °FOvercast.2 mph74%29.77 "Hg16 mi
4:00 PM66 °FMild.6 mph69%29.79 "HgN/A
3:00 PM65 °FMild.8 mph67%29.80 "HgN/A
2:00 PM65 °FOvercast.2 mph69%29.80 "Hg19 mi
1:00 PM63 °FMild.3 mph74%29.81 "HgN/A
12:00 PM62 °FMild.2 mph70%29.82 "HgN/A
11:00 AM60 °FOvercast.2 mph78%29.84 "Hg12 mi
10:00 AM58 °FCool.6 mph81%29.84 "HgN/A
9:00 AM56 °FCool.3 mph84%29.86 "HgN/A
Weather by CustomWeather, © 2015

See weather overviewHow to use our weather pages